星链-2737 (STARLINK-2737 )

导读 | 豆包AI

STARLINK-2737是美国SpaceX公司星链(Starlink)低轨通信星座的组网卫星,于2021年5月26日发射入轨,属于星链项目批量生产的V1版本卫星。 该卫星运行在近地轨道,搭载Ku/Ka波段通信载荷,采用氪工质霍尔推进器,具备自主轨道调整与避撞能力,设计寿命约5-7年,退役后会主动离轨再入大气层销毁。 它是星链全球宽带互联网项目的组成部分,服务覆盖偏远区域,不过星链巨型星座的扩张给空间交通安全与天文观测带来额外挑战。

Basic Information
目录编号:
48675
目录名称:
STARLINK-2737
国际标识:
2021-044AP
轨道中心:
EARTH
卫星名称:
星链-2737
卫星全名:
星链-2737 (STARLINK-2737 )
卫星状态:
已陨落 最后检测时间 2025-02-01
发射日期:
2021-05-26 UTC
国别 :
美国 (US)
星等 :
--
Orbit Information
数据来源 国际轨道数据
星历时间: 2025-02-01T08:37:23+0800
轨道信息已过期406天
半长轴: 6558.953km
偏心率: 0.0000627
轨道倾角: 53.038°
近地点辐角 135.185°
升交点赤经 97.414°
平近点角 5.569°
近地点: 180.406km
远地点: 181.23km
周期: 88.107分钟
每日圈数: 16.343726
Detailed Information
固有亮度:
5
最大亮度:
2.5
卫星平台:
Starlink V1.0
覆盖范围:
全球
运营商:
太空探索技术公司
运营商所在国:
美国
制造商(研发单位):
太空探索技术公司
制造商所在国:
美国
使用方式:
暂无
Satellite Introduction
星链(Starlink)计划是由太空探索技术公司(SpaceX)提出的一个巨型低轨卫星互联网星座项目,计划在2019年至2024年间在太空搭建由约1.2万颗卫星组成的“星链”网络,其中1584颗将部署在地球上空550千米处的近地轨道,并从2020年开始工作。该卫星仍在工作。